Time,TemperatureF,DewpointF,PressureIn,WindDirection,WindDirectionDegrees,WindSpeedMPH,WindSpeedGustMPH,Humidity,HourlyPrecipIn,Conditions,Clouds,dailyrainin,SoftwareType,DateUTC
2013-04-20 00:02:00,65.3,29.5,29.91,SW,226,34.0,34.0,26,0.00,OVC,,0.00,WeatherDisplay:10.37,2013-04-20 07:02:00,
2013-04-20 00:07:00,67.0,27.9,29.90,West,263,21.9,21.9,23,0.00,OVC,,0.00,WeatherDisplay:10.37,2013-04-20 07:07:00,
2013-04-20 00:12:00,67.6,26.2,29.88,WNW,282,42.6,42.6,21,0.00,OVC,,0.00,WeatherDisplay:10.37,2013-04-20 07:12:00,
2013-04-20 00:17:00,67.7,26.3,29.87,West,265,41.4,41.4,21,0.00,OVC,,0.00,WeatherDisplay:10.37,2013-04-20 07:17:00,
2013-04-20 00:22:00,68.6,25.9,29.86,West,273,42.6,42.6,20,0.00,OVC,,0.00,WeatherDisplay:10.37,2013-04-20 07:22:00,
2013-04-20 00:27:00,67.9,27.6,29.87,West,269,39.0,39.0,22,0.00,OVC,,0.00,WeatherDisplay:10.37,2013-04-20 07:27:00,
2013-04-20 00:32:00,67.8,27.5,29.88,WSW,238,26.5,26.5,22,0.00,OVC,,0.00,WeatherDisplay:10.37,2013-04-20 07:32:00,
2013-04-20 00:37:00,67.0,27.9,29.88,West,269,31.1,31.1,23,0.00,OVC,,0.00,WeatherDisplay:10.37,2013-04-20 07:37:00,
2013-04-20 00:42:00,68.6,27.1,29.89,West,274,27.0,27.0,21,0.00,OVC,,0.00,WeatherDisplay:10.37,2013-04-20 07:42:00,
2013-04-20 00:48:00,68.6,27.1,29.89,WSW,256,18.4,18.4,21,0.00,OVC,,0.00,WeatherDisplay:10.37,2013-04-20 07:48:00,
2013-04-20 00:53:00,68.7,27.2,29.89,West,281,26.5,26.5,21,0.00,OVC,,0.00,WeatherDisplay:10.37,2013-04-20 07:53:00,
2013-04-20 00:58:00,67.0,30.0,29.90,WSW,258,13.8,13.8,25,0.00,OVC,,0.00,WeatherDisplay:10.37,2013-04-20 07:58:00,
2013-04-20 01:03:00,65.1,30.3,29.91,SSW,196,21.9,21.9,27,0.00,OVC,,0.00,WeatherDisplay:10.37,2013-04-20 08:03:00,
2013-04-20 01:08:00,64.4,30.6,29.90,SSW,194,20.0,20.0,28,0.00,OVC,,0.00,WeatherDisplay:10.37,2013-04-20 08:08:00,
2013-04-20 01:13:00,64.7,29.9,29.90,SW,217,20.7,20.7,27,0.00,OVC,,0.00,WeatherDisplay:10.37,2013-04-20 08:13:00,
2013-04-20 01:18:00,63.9,30.1,29.90,SW,225,13.0,20.0,28,0.00,CLR,,0.00,WeatherDisplay:10.37,2013-04-20 08:18:00,
2013-04-20 01:23:00,64.4,29.7,29.89,SW,232,14.0,21.0,27,0.00,CLR,,0.00,WeatherDisplay:10.37,2013-04-20 08:23:00,
2013-04-20 01:28:00,64.3,29.6,29.89,WSW,237,12.0,20.0,27,0.00,CLR,,0.00,WeatherDisplay:10.37,2013-04-20 08:28:00,
2013-04-20 01:33:00,63.5,29.8,29.90,SW,235,8.0,12.0,28,0.00,CLR,,0.00,WeatherDisplay:10.37,2013-04-20 08:33:00,
2013-04-20 01:38:00,64.0,30.2,29.90,SSW,204,5.0,12.0,28,0.00,CLR,,0.00,WeatherDisplay:10.37,2013-04-20 08:38:00,
2013-04-20 01:43:00,63.0,30.2,29.90,SSE,160,8.0,9.0,29,0.00,CLR,,0.00,WeatherDisplay:10.37,2013-04-20 08:43:00,
2013-04-20 01:48:00,61.7,30.7,29.90,South,171,10.4,10.4,31,0.00,OVC,,0.00,WeatherDisplay:10.37,2013-04-20 08:48:00,
2013-04-20 01:53:00,62.0,31.0,29.90,SSE,166,12.7,12.7,31,0.00,OVC,,0.00,WeatherDisplay:10.37,2013-04-20 08:53:00,
2013-04-20 01:59:00,61.8,30.0,29.90,WSW,255,8.1,8.1,30,0.00,OVC,,0.00,WeatherDisplay:10.37,2013-04-20 08:59:00,
2013-04-20 02:04:00,61.3,29.6,29.89,WSW,241,3.5,3.5,30,0.00,OVC,,0.00,WeatherDisplay:10.37,2013-04-20 09:04:00,
2013-04-20 02:09:00,61.6,29.8,29.89,WSW,238,9.0,9.0,30,0.00,OVC,,0.00,WeatherDisplay:10.37,2013-04-20 09:09:00,
2013-04-20 02:14:00,62.5,30.6,29.88,WSW,238,15.0,15.0,30,0.00,OVC,,0.00,WeatherDisplay:10.37,2013-04-20 09:14:00,
2013-04-20 02:19:00,64.0,30.2,29.88,WNW,283,11.5,11.5,28,0.00,OVC,,0.00,WeatherDisplay:10.37,2013-04-20 09:19:00,
2013-04-20 02:24:00,63.8,30.0,29.88,West,269,17.3,17.3,28,0.00,OVC,,0.00,WeatherDisplay:10.37,2013-04-20 09:24:00,
2013-04-20 02:29:00,64.4,30.6,29.88,WSW,240,15.0,15.0,28,0.00,CLR,,0.00,WeatherDisplay:10.37,2013-04-20 09:29:00,
2013-04-20 02:34:00,64.4,29.7,29.88,NW,310,11.5,11.5,27,0.00,OVC,,0.00,WeatherDisplay:10.37,2013-04-20 09:34:00,
2013-04-20 02:39:00,64.8,30.0,29.88,SSE,167,8.1,8.1,27,0.00,OVC,,0.00,WeatherDisplay:10.37,2013-04-20 09:39:00,
2013-04-20 02:44:00,63.3,29.6,29.88,SSE,159,6.9,6.9,28,0.00,OVC,,0.00,WeatherDisplay:10.37,2013-04-20 09:44:00,
2013-04-20 02:50:00,62.7,30.0,29.88,SW,227,7.0,7.0,29,0.00,OVC,,0.00,WeatherDisplay:10.37,2013-04-20 09:50:00,
2013-04-20 02:55:00,64.0,31.1,29.89,SSW,213,13.8,13.8,29,0.00,OVC,,0.00,WeatherDisplay:10.37,2013-04-20 09:55:00,
2013-04-20 03:00:00,63.1,31.1,29.88,South,177,9.0,9.0,30,0.00,OVC,,0.00,WeatherDisplay:10.37,2013-04-20 10:00:00,
2013-04-20 03:05:00,63.0,31.0,29.88,South,182,13.0,13.0,30,0.00,OVC,,0.00,WeatherDisplay:10.37,2013-04-20 10:05:00,
2013-04-20 03:10:00,62.7,30.8,29.88,WSW,245,5.8,5.8,30,0.00,OVC,,0.00,WeatherDisplay:10.37,2013-04-20 10:10:00,
2013-04-20 03:16:00,62.4,30.5,29.88,SSW,208,9.2,9.2,30,0.00,OVC,,0.00,WeatherDisplay:10.37,2013-04-20 10:16:00,
2013-04-20 03:21:00,62.6,31.5,29.87,South,190,23.0,23.0,31,0.00,OVC,,0.00,WeatherDisplay:10.37,2013-04-20 10:21:00,
2013-04-20 03:26:00,63.4,31.4,29.87,SW,223,21.9,21.9,30,0.00,OVC,,0.00,WeatherDisplay:10.37,2013-04-20 10:26:00,
2013-04-20 03:31:00,63.7,29.1,29.87,WSW,246,18.4,18.4,27,0.00,OVC,,0.00,WeatherDisplay:10.37,2013-04-20 10:31:00,
2013-04-20 03:36:00,63.6,30.7,29.87,SW,215,8.1,8.1,29,0.00,OVC,,0.00,WeatherDisplay:10.37,2013-04-20 10:36:00,
2013-04-20 03:41:00,61.9,30.9,29.87,WNW,296,4.6,4.6,31,0.00,OVC,,0.00,WeatherDisplay:10.37,2013-04-20 10:41:00,
2013-04-20 03:46:00,61.4,30.5,29.87,WNW,297,3.0,3.0,31,0.00,OVC,,0.00,WeatherDisplay:10.37,2013-04-20 10:46:00,
2013-04-20 03:51:00,60.9,31.6,29.87,SE,138,10.4,10.4,33,0.00,OVC,,0.00,WeatherDisplay:10.37,2013-04-20 10:51:00,
2013-04-20 03:57:00,60.7,31.4,29.87,SSW,211,9.2,9.2,33,0.00,OVC,,0.00,WeatherDisplay:10.37,2013-04-20 10:57:00,
2013-04-20 04:02:00,61.8,30.8,29.87,West,277,8.1,8.1,31,0.00,OVC,,0.00,WeatherDisplay:10.37,2013-04-20 11:02:00,
2013-04-20 04:07:00,61.0,30.9,29.87,South,181,12.7,12.7,32,0.00,OVC,,0.00,WeatherDisplay:10.37,2013-04-20 11:07:00,
2013-04-20 04:12:00,61.1,29.4,29.87,SSW,207,9.2,9.2,30,0.00,OVC,,0.00,WeatherDisplay:10.37,2013-04-20 11:12:00,
2013-04-20 04:18:00,62.2,29.5,29.88,North,5,3.5,3.5,29,0.00,OVC,,0.00,WeatherDisplay:10.37,2013-04-20 11:18:00,
2013-04-20 04:23:00,62.2,29.5,29.88,South,183,8.1,8.1,29,0.00,OVC,,0.00,WeatherDisplay:10.37,2013-04-20 11:23:00,
2013-04-20 04:28:00,63.1,28.5,29.88,SW,220,8.1,8.1,27,0.00,OVC,,0.00,WeatherDisplay:10.37,2013-04-20 11:28:00,
2013-04-20 04:33:00,63.3,29.6,29.88,South,188,8.0,10.0,28,0.00,CLR,,0.00,WeatherDisplay:10.37,2013-04-20 11:33:00,
2013-04-20 04:38:00,63.0,29.4,29.88,South,186,8.0,10.0,28,0.00,CLR,,0.00,WeatherDisplay:10.37,2013-04-20 11:38:00,
2013-04-20 04:43:00,63.8,30.0,29.88,South,183,13.0,16.0,28,0.00,CLR,,0.00,WeatherDisplay:10.37,2013-04-20 11:43:00,
2013-04-20 04:48:00,64.3,28.7,29.88,SW,221,19.6,19.6,26,0.00,OVC,,0.00,WeatherDisplay:10.37,2013-04-20 11:48:00,
2013-04-20 04:54:00,64.3,29.6,29.88,East,98,4.6,4.6,27,0.00,OVC,,0.00,WeatherDisplay:10.37,2013-04-20 11:54:00,
2013-04-20 04:59:00,64.2,29.5,29.88,WNW,302,10.0,10.0,27,0.00,OVC,,0.00,WeatherDisplay:10.37,2013-04-20 11:59:00,
2013-04-20 05:04:00,63.8,30.0,29.88,SW,227,9.2,9.2,28,0.00,OVC,,0.00,WeatherDisplay:10.37,2013-04-20 12:04:00,
2013-04-20 05:09:00,64.9,29.2,29.88,WSW,253,14.0,14.0,26,0.00,OVC,,0.00,WeatherDisplay:10.37,2013-04-20 12:09:00,
2013-04-20 05:14:00,65.5,28.7,29.88,West,272,5.8,5.8,25,0.00,OVC,,0.00,WeatherDisplay:10.37,2013-04-20 12:14:00,
2013-04-20 05:19:00,66.6,28.6,29.87,WNW,295,15.0,15.0,24,0.00,OVC,,0.00,WeatherDisplay:10.37,2013-04-20 12:19:00,
2013-04-20 05:24:00,66.9,28.9,29.87,WSW,253,12.7,12.7,24,0.00,OVC,,0.00,WeatherDisplay:10.37,2013-04-20 12:24:00,
2013-04-20 05:29:00,66.8,27.8,29.87,West,280,10.4,10.4,23,0.00,OVC,,0.00,WeatherDisplay:10.37,2013-04-20 12:29:00,
2013-04-20 05:34:00,66.8,27.8,29.87,WNW,284,3.5,3.5,23,0.00,OVC,,0.00,WeatherDisplay:10.37,2013-04-20 12:34:00,
2013-04-20 05:39:00,66.2,28.3,29.88,WSW,237,2.0,2.0,24,0.00,OVC,,0.00,WeatherDisplay:10.37,2013-04-20 12:39:00,
2013-04-20 05:44:00,65.6,27.8,29.87,South,180,5.0,5.0,24,0.00,OVC,,0.00,WeatherDisplay:10.37,2013-04-20 12:44:00,
2013-04-20 05:50:00,65.1,28.4,29.87,SSW,209,9.2,9.2,25,0.00,CLR,,0.00,WeatherDisplay:10.37,2013-04-20 12:50:00,
2013-04-20 05:55:00,64.4,28.7,29.87,South,174,12.0,12.0,26,0.00,OVC,,0.00,WeatherDisplay:10.37,2013-04-20 12:55:00,
2013-04-20 06:00:00,61.3,29.6,29.87,SSE,165,10.4,10.4,30,0.00,OVC,,0.00,WeatherDisplay:10.37,2013-04-20 13:00:00,
2013-04-20 06:05:00,58.4,28.6,29.88,SE,142,8.1,8.1,32,0.00,OVC,,0.00,WeatherDisplay:10.37,2013-04-20 13:05:00,
2013-04-20 06:11:00,58.7,28.9,29.88,East,97,2.3,2.3,32,0.00,OVC,,0.00,WeatherDisplay:10.37,2013-04-20 13:11:00,
2013-04-20 06:16:00,58.2,29.2,29.88,NNE,28,3.5,3.5,33,0.00,OVC,,0.00,WeatherDisplay:10.37,2013-04-20 13:16:00,
2013-04-20 06:21:00,58.4,30.1,29.88,NE,53,6.9,6.9,34,0.00,OVC,,0.00,WeatherDisplay:10.37,2013-04-20 13:21:00,
2013-04-20 06:26:00,58.9,29.8,29.89,ENE,59,9.0,9.0,33,0.00,OVC,,0.00,WeatherDisplay:10.37,2013-04-20 13:26:00,
2013-04-20 06:31:00,59.4,30.3,29.89,East,86,9.2,9.2,33,0.00,OVC,,0.00,WeatherDisplay:10.37,2013-04-20 13:31:00,
2013-04-20 06:36:00,59.1,30.7,29.89,NE,47,3.5,3.5,34,0.00,OVC,,0.00,WeatherDisplay:10.37,2013-04-20 13:36:00,
2013-04-20 06:41:00,59.3,30.9,29.89,ENE,70,11.0,11.0,34,0.00,OVC,,0.00,WeatherDisplay:10.37,2013-04-20 13:41:00,
2013-04-20 06:47:00,58.9,30.6,29.89,ENE,71,10.4,10.4,34,0.00,OVC,,0.00,WeatherDisplay:10.37,2013-04-20 13:47:00,
2013-04-20 06:52:00,59.2,30.8,29.89,ESE,106,5.0,5.0,34,0.00,OVC,,0.00,WeatherDisplay:10.37,2013-04-20 13:52:00,
2013-04-20 06:57:00,59.8,31.3,29.90,SSW,202,16.1,16.1,34,0.00,OVC,,0.00,WeatherDisplay:10.37,2013-04-20 13:57:00,
2013-04-20 07:02:00,59.9,31.4,29.90,West,273,3.5,3.5,34,0.00,OVC,,0.00,WeatherDisplay:10.37,2013-04-20 14:02:00,
2013-04-20 07:07:00,60.5,31.2,29.90,East,86,8.1,8.1,33,0.00,OVC,,0.00,WeatherDisplay:10.37,2013-04-20 14:07:00,
2013-04-20 07:12:00,62.0,31.0,29.90,ESE,105,10.0,10.0,31,0.00,OVC,,0.00,WeatherDisplay:10.37,2013-04-20 14:12:00,
2013-04-20 07:17:00,63.1,31.9,29.90,East,98,8.1,8.1,31,0.00,OVC,,0.00,WeatherDisplay:10.37,2013-04-20 14:17:00,
2013-04-20 07:22:00,63.6,30.7,29.90,WNW,288,12.0,12.0,29,0.00,OVC,,0.00,WeatherDisplay:10.37,2013-04-20 14:22:00,
2013-04-20 07:27:00,67.4,29.3,29.90,WNW,300,28.8,28.8,24,0.00,OVC,,0.00,WeatherDisplay:10.37,2013-04-20 14:27:00,
2013-04-20 07:33:00,68.5,28.1,29.90,West,281,20.7,20.7,22,0.00,OVC,,0.00,WeatherDisplay:10.37,2013-04-20 14:33:00,
2013-04-20 07:38:00,68.9,28.5,29.90,NW,312,23.0,23.0,22,0.00,OVC,,0.00,WeatherDisplay:10.37,2013-04-20 14:38:00,
2013-04-20 07:43:00,69.2,28.7,29.90,WNW,303,17.0,25.0,22,0.00,CLR,,0.00,WeatherDisplay:10.37,2013-04-20 14:43:00,
2013-04-20 07:48:00,68.3,31.1,29.91,NW,325,17.3,17.3,25,0.00,OVC,,0.00,WeatherDisplay:10.37,2013-04-20 14:48:00,
2013-04-20 07:54:00,68.5,32.2,29.91,NNE,25,17.3,17.3,26,0.00,CLR,,0.00,WeatherDisplay:10.37,2013-04-20 14:54:00,
2013-04-20 07:59:00,68.0,33.7,29.91,NW,319,11.5,11.5,28,0.00,OVC,,0.00,WeatherDisplay:10.37,2013-04-20 14:59:00,
2013-04-20 08:04:00,68.6,31.3,29.91,NW,311,16.1,16.1,25,0.00,OVC,,0.00,WeatherDisplay:10.37,2013-04-20 15:04:00,
2013-04-20 08:09:00,69.2,30.8,29.91,WNW,300,15.0,15.0,24,0.00,OVC,,0.00,WeatherDisplay:10.37,2013-04-20 15:09:00,
2013-04-20 08:14:00,69.7,31.3,29.92,NNW,330,19.6,19.6,24,0.00,OVC,,0.00,WeatherDisplay:10.37,2013-04-20 15:14:00,
2013-04-20 08:19:00,69.6,31.2,29.92,NW,325,18.4,18.4,24,0.00,OVC,,0.00,WeatherDisplay:10.37,2013-04-20 15:19:00,
2013-04-20 08:24:00,69.7,30.2,29.92,NW,313,23.0,23.0,23,0.00,OVC,,0.00,WeatherDisplay:10.37,2013-04-20 15:24:00,
2013-04-20 08:29:00,70.0,30.5,29.92,NW,310,21.9,21.9,23,0.00,OVC,,0.00,WeatherDisplay:10.37,2013-04-20 15:29:00,
2013-04-20 08:34:00,70.4,30.8,29.92,NW,311,21.0,21.0,23,0.00,OVC,,0.00,WeatherDisplay:10.37,2013-04-20 15:34:00,
2013-04-20 08:39:00,70.4,29.7,29.92,NW,306,19.6,19.6,22,0.00,OVC,,0.00,WeatherDisplay:10.37,2013-04-20 15:39:00,
2013-04-20 08:45:00,70.6,31.0,29.92,NW,323,19.6,19.6,23,0.00,OVC,,0.00,WeatherDisplay:10.37,2013-04-20 15:45:00,
2013-04-20 08:50:00,70.8,30.0,29.91,WNW,300,23.0,23.0,22,0.00,OVC,,0.00,WeatherDisplay:10.37,2013-04-20 15:50:00,
2013-04-20 08:55:00,71.0,30.2,29.91,NW,309,24.2,24.2,22,0.00,OVC,,0.00,WeatherDisplay:10.37,2013-04-20 15:55:00,
2013-04-20 09:00:00,71.2,29.2,29.91,NW,319,21.0,21.0,21,0.00,OVC,,0.00,WeatherDisplay:10.37,2013-04-20 16:00:00,
2013-04-20 09:05:00,71.1,30.3,29.91,WNW,300,20.7,20.7,22,0.00,OVC,,0.00,WeatherDisplay:10.37,2013-04-20 16:05:00,
2013-04-20 09:10:00,71.4,30.5,29.91,NW,315,20.7,20.7,22,0.00,OVC,,0.00,WeatherDisplay:10.37,2013-04-20 16:10:00,
2013-04-20 09:15:00,71.6,30.7,29.91,NW,307,23.0,23.0,22,0.00,CLR,,0.00,WeatherDisplay:10.37,2013-04-20 16:15:00,
2013-04-20 09:21:00,71.9,29.8,29.91,NW,318,17.3,17.3,21,0.00,OVC,,0.00,WeatherDisplay:10.37,2013-04-20 16:21:00,
2013-04-20 09:26:00,72.0,28.7,29.91,NW,309,20.0,20.0,20,0.00,OVC,,0.00,WeatherDisplay:10.37,2013-04-20 16:26:00,
2013-04-20 09:31:00,72.4,27.8,29.91,WNW,303,18.4,18.4,19,0.00,OVC,,0.00,WeatherDisplay:10.37,2013-04-20 16:31:00,
2013-04-20 09:36:00,72.2,28.9,29.91,NW,320,19.6,19.6,20,0.00,OVC,,0.00,WeatherDisplay:10.37,2013-04-20 16:36:00,
2013-04-20 09:41:00,72.5,27.9,29.91,WNW,303,17.3,17.3,19,0.00,OVC,,0.00,WeatherDisplay:10.37,2013-04-20 16:41:00,
2013-04-20 09:46:00,72.3,29.0,29.91,WNW,288,18.4,18.4,20,0.00,OVC,,0.00,WeatherDisplay:10.37,2013-04-20 16:46:00,
2013-04-20 09:51:00,72.7,29.3,29.91,NW,315,13.8,13.8,20,0.00,OVC,,0.00,WeatherDisplay:10.37,2013-04-20 16:51:00,
2013-04-20 09:56:00,72.6,29.2,29.90,West,280,17.3,17.3,20,0.00,CLR,,0.00,WeatherDisplay:10.37,2013-04-20 16:56:00,
2013-04-20 10:01:00,72.8,29.4,29.91,NW,316,11.5,11.5,20,0.00,OVC,,0.00,WeatherDisplay:10.37,2013-04-20 17:01:00,
2013-04-20 10:06:00,73.1,29.6,29.91,NW,319,16.1,16.1,20,0.00,OVC,,0.00,WeatherDisplay:10.37,2013-04-20 17:06:00,
2013-04-20 10:11:00,73.3,29.8,29.91,NNW,339,12.7,12.7,20,0.00,OVC,,0.00,WeatherDisplay:10.37,2013-04-20 17:11:00,
2013-04-20 10:16:00,74.9,31.1,29.91,NE,38,11.0,11.0,20,0.00,OVC,,0.00,WeatherDisplay:10.37,2013-04-20 17:16:00,
2013-04-20 10:21:00,75.9,30.7,29.91,NNE,15,12.7,12.7,19,0.00,OVC,,0.00,WeatherDisplay:10.37,2013-04-20 17:21:00,
2013-04-20 10:27:00,76.3,31.0,29.90,NW,316,4.0,4.0,19,0.00,OVC,,0.00,WeatherDisplay:10.37,2013-04-20 17:27:00,
2013-04-20 10:32:00,76.3,29.7,29.90,NNE,13,8.1,8.1,18,0.00,OVC,,0.00,WeatherDisplay:10.37,2013-04-20 17:32:00,
2013-04-20 10:37:00,77.1,27.4,29.90,NNE,19,13.8,13.8,16,0.00,OVC,,0.00,WeatherDisplay:10.37,2013-04-20 17:37:00,
2013-04-20 10:42:00,76.8,25.6,29.90,NE,54,16.1,16.1,15,0.00,OVC,,0.00,WeatherDisplay:10.37,2013-04-20 17:42:00,
2013-04-20 10:47:00,76.7,27.1,29.90,NNE,30,10.4,10.4,16,0.00,OVC,,0.00,WeatherDisplay:10.37,2013-04-20 17:47:00,
2013-04-20 10:52:00,76.0,28.0,29.90,NNW,332,13.8,13.8,17,0.00,OVC,,0.00,WeatherDisplay:10.37,2013-04-20 17:52:00,
2013-04-20 10:58:00,75.3,27.4,29.90,NNE,13,5.8,5.8,17,0.00,OVC,,0.00,WeatherDisplay:10.37,2013-04-20 17:58:00,
2013-04-20 11:03:00,76.8,27.2,29.90,NNE,17,6.9,6.9,16,0.00,OVC,,0.00,WeatherDisplay:10.37,2013-04-20 18:03:00,
2013-04-20 11:08:00,77.3,27.6,29.90,ENE,57,13.0,13.0,16,0.00,OVC,,0.00,WeatherDisplay:10.37,2013-04-20 18:08:00,
2013-04-20 11:13:00,78.5,27.0,29.90,NNW,337,13.0,13.0,15,0.00,OVC,,0.00,WeatherDisplay:10.37,2013-04-20 18:13:00,
2013-04-20 11:18:00,78.2,26.7,29.90,North,9,9.0,17.0,15,0.00,CLR,,0.00,WeatherDisplay:10.37,2013-04-20 18:18:00,
2013-04-20 11:23:00,78.2,26.7,29.90,NNE,17,13.0,18.0,15,0.00,CLR,,0.00,WeatherDisplay:10.37,2013-04-20 18:23:00,
2013-04-20 11:28:00,77.7,26.3,29.90,NE,44,19.6,19.6,15,0.00,OVC,,0.00,WeatherDisplay:10.37,2013-04-20 18:28:00,
2013-04-20 11:33:00,77.5,26.2,29.90,NNE,30,13.0,13.0,15,0.00,OVC,,0.00,WeatherDisplay:10.37,2013-04-20 18:33:00,
2013-04-20 11:38:00,78.0,26.6,29.90,NW,315,15.0,15.0,15,0.00,OVC,,0.00,WeatherDisplay:10.37,2013-04-20 18:38:00,
2013-04-20 11:44:00,77.9,26.5,29.89,NW,323,10.0,10.0,15,0.00,OVC,,0.00,WeatherDisplay:10.37,2013-04-20 18:44:00,
2013-04-20 11:49:00,77.9,26.5,29.89,NW,313,15.0,15.0,15,0.00,OVC,,0.00,WeatherDisplay:10.37,2013-04-20 18:49:00,
2013-04-20 11:54:00,78.6,27.1,29.89,NE,46,13.0,13.0,15,0.00,OVC,,0.00,WeatherDisplay:10.37,2013-04-20 18:54:00,
2013-04-20 11:59:00,79.3,25.9,29.89,NNE,15,20.7,20.7,14,0.00,OVC,,0.00,WeatherDisplay:10.37,2013-04-20 18:59:00,
2013-04-20 12:04:00,78.2,25.1,29.89,NNW,339,15.0,15.0,14,0.00,OVC,,0.00,WeatherDisplay:10.37,2013-04-20 19:04:00,
2013-04-20 12:10:00,78.4,26.9,29.89,North,355,13.8,13.8,15,0.00,OVC,,0.00,WeatherDisplay:10.37,2013-04-20 19:10:00,
2013-04-20 12:15:00,77.8,24.8,29.89,NW,308,11.5,11.5,14,0.00,OVC,,0.00,WeatherDisplay:10.37,2013-04-20 19:15:00,
2013-04-20 12:20:00,77.7,26.3,29.88,NNE,20,8.1,8.1,15,0.00,OVC,,0.00,WeatherDisplay:10.37,2013-04-20 19:20:00,
2013-04-20 12:25:00,78.5,27.0,29.88,NNE,15,17.3,17.3,15,0.00,OVC,,0.00,WeatherDisplay:10.37,2013-04-20 19:25:00,
2013-04-20 12:30:00,79.0,27.4,29.88,NE,47,18.0,18.0,15,0.00,OVC,,0.00,WeatherDisplay:10.37,2013-04-20 19:30:00,
2013-04-20 12:35:00,79.1,27.5,29.88,NNE,22,11.5,11.5,15,0.00,OVC,,0.00,WeatherDisplay:10.37,2013-04-20 19:35:00,
2013-04-20 12:40:00,79.8,28.0,29.88,ENE,67,16.0,16.0,15,0.00,OVC,,0.00,WeatherDisplay:10.37,2013-04-20 19:40:00,
2013-04-20 12:45:00,79.2,27.5,29.88,NNE,22,17.3,17.3,15,0.00,OVC,,0.00,WeatherDisplay:10.37,2013-04-20 19:45:00,
2013-04-20 12:50:00,79.1,27.5,29.88,NE,37,7.0,7.0,15,0.00,OVC,,0.00,WeatherDisplay:10.37,2013-04-20 19:50:00,
2013-04-20 12:56:00,78.6,25.4,29.87,NE,34,18.4,18.4,14,0.00,OVC,,0.00,WeatherDisplay:10.37,2013-04-20 19:56:00,
2013-04-20 13:01:00,78.5,25.3,29.88,NNE,23,18.4,18.4,14,0.00,OVC,,0.00,WeatherDisplay:10.37,2013-04-20 20:01:00,
2013-04-20 13:06:00,78.6,25.4,29.88,NNE,14,10.4,10.4,14,0.00,OVC,,0.00,WeatherDisplay:10.37,2013-04-20 20:06:00,
2013-04-20 13:11:00,79.4,26.0,29.88,NE,48,15.0,15.0,14,0.00,OVC,,0.00,WeatherDisplay:10.37,2013-04-20 20:11:00,
2013-04-20 13:16:00,80.0,24.7,29.87,ENE,58,10.4,10.4,13,0.00,OVC,,0.00,WeatherDisplay:10.37,2013-04-20 20:16:00,
2013-04-20 13:21:00,79.8,24.6,29.87,ENE,72,9.2,9.2,13,0.00,OVC,,0.00,WeatherDisplay:10.37,2013-04-20 20:21:00,
2013-04-20 13:26:00,79.6,24.4,29.87,NNE,17,6.9,6.9,13,0.00,OVC,,0.00,WeatherDisplay:10.37,2013-04-20 20:26:00,
2013-04-20 13:31:00,79.4,24.2,29.87,NE,55,18.4,18.4,13,0.00,OVC,,0.00,WeatherDisplay:10.37,2013-04-20 20:31:00,
2013-04-20 13:37:00,79.0,23.9,29.86,North,9,20.7,20.7,13,0.00,OVC,,0.00,WeatherDisplay:10.37,2013-04-20 20:37:00,
2013-04-20 13:42:00,80.1,22.9,29.86,NNE,26,17.0,17.0,12,0.00,OVC,,0.00,WeatherDisplay:10.37,2013-04-20 20:42:00,
2013-04-20 13:47:00,80.7,23.3,29.86,NNE,30,12.7,12.7,12,0.00,OVC,,0.00,WeatherDisplay:10.37,2013-04-20 20:47:00,
2013-04-20 13:52:00,80.8,23.4,29.86,NNW,346,3.0,3.0,12,0.00,OVC,,0.00,WeatherDisplay:10.37,2013-04-20 20:52:00,
2013-04-20 13:57:00,80.7,23.3,29.86,NE,51,15.0,15.0,12,0.00,OVC,,0.00,WeatherDisplay:10.37,2013-04-20 20:57:00,
2013-04-20 14:02:00,80.1,22.9,29.86,NE,49,17.3,17.3,12,0.00,CLR,,0.00,WeatherDisplay:10.37,2013-04-20 21:02:00,
2013-04-20 14:07:00,80.1,22.9,29.86,NNE,32,12.7,12.7,12,0.00,CLR,,0.00,WeatherDisplay:10.37,2013-04-20 21:07:00,
2013-04-20 14:13:00,80.0,22.8,29.85,NW,315,8.1,8.1,12,0.00,CLR,,0.00,WeatherDisplay:10.37,2013-04-20 21:13:00,
2013-04-20 14:18:00,80.4,23.1,29.85,NE,49,6.9,6.9,12,0.00,CLR,,0.00,WeatherDisplay:10.37,2013-04-20 21:18:00,
2013-04-20 14:23:00,81.3,23.8,29.85,NE,47,12.0,12.0,12,0.00,CLR,,0.00,WeatherDisplay:10.37,2013-04-20 21:23:00,
2013-04-20 14:28:00,80.9,23.5,29.85,East,90,14.0,14.0,12,0.00,CLR,,0.00,WeatherDisplay:10.37,2013-04-20 21:28:00,
2013-04-20 14:33:00,80.1,22.9,29.85,ENE,58,1.0,15.0,12,0.00,CLR,,0.00,WeatherDisplay:10.37,2013-04-20 21:33:00,
2013-04-20 14:38:00,80.4,23.1,29.85,East,83,5.0,7.0,12,0.00,CLR,,0.00,WeatherDisplay:10.37,2013-04-20 21:38:00,
2013-04-20 14:43:00,79.5,22.4,29.85,SE,124,8.0,21.0,12,0.00,CLR,,0.00,WeatherDisplay:10.37,2013-04-20 21:43:00,
2013-04-20 14:48:00,79.6,22.5,29.84,ESE,120,7.0,16.0,12,0.00,CLR,,0.00,WeatherDisplay:10.37,2013-04-20 21:48:00,
2013-04-20 14:53:00,79.6,22.5,29.84,SSE,149,1.0,10.0,12,0.00,CLR,,0.00,WeatherDisplay:10.37,2013-04-20 21:53:00,
2013-04-20 14:58:00,79.9,22.7,29.84,NNW,334,11.5,11.5,12,0.00,CLR,,0.00,WeatherDisplay:10.37,2013-04-20 21:58:00,
2013-04-20 15:03:00,81.2,21.7,29.84,North,360,8.1,8.1,11,0.00,CLR,,0.00,WeatherDisplay:10.37,2013-04-20 22:03:00,
2013-04-20 15:08:00,82.5,22.7,29.83,NW,320,9.0,9.0,11,0.00,CLR,,0.00,WeatherDisplay:10.37,2013-04-20 22:08:00,
2013-04-20 15:13:00,83.2,20.9,29.83,ENE,62,13.8,13.8,10,0.00,CLR,,0.00,WeatherDisplay:10.37,2013-04-20 22:13:00,
2013-04-20 15:18:00,82.2,22.4,29.83,NE,55,19.6,19.6,11,0.00,CLR,,0.00,WeatherDisplay:10.37,2013-04-20 22:18:00,
2013-04-20 15:24:00,81.7,22.0,29.83,East,80,10.0,10.0,11,0.00,CLR,,0.00,WeatherDisplay:10.37,2013-04-20 22:24:00,
2013-04-20 15:29:00,81.0,21.5,29.83,East,98,14.0,14.0,11,0.00,CLR,,0.00,WeatherDisplay:10.37,2013-04-20 22:29:00,
2013-04-20 15:34:00,80.4,21.0,29.82,ENE,61,11.5,11.5,11,0.00,CLR,,0.00,WeatherDisplay:10.37,2013-04-20 22:34:00,
2013-04-20 15:39:00,81.5,21.9,29.82,NNE,33,7.0,7.0,11,0.00,CLR,,0.00,WeatherDisplay:10.37,2013-04-20 22:39:00,
2013-04-20 15:44:00,81.8,22.1,29.82,East,96,11.0,11.0,11,0.00,CLR,,0.00,WeatherDisplay:10.37,2013-04-20 22:44:00,
2013-04-20 15:49:00,81.3,21.7,29.82,ENE,59,9.2,9.2,11,0.00,CLR,,0.00,WeatherDisplay:10.37,2013-04-20 22:49:00,
2013-04-20 15:54:00,82.0,22.3,29.82,East,95,8.1,8.1,11,0.00,CLR,,0.00,WeatherDisplay:10.37,2013-04-20 22:54:00,
2013-04-20 16:00:00,81.5,21.9,29.81,NE,44,11.5,11.5,11,0.00,CLR,,0.00,WeatherDisplay:10.37,2013-04-20 23:00:00,
2013-04-20 16:05:00,81.8,22.1,29.81,NE,46,5.8,5.8,11,0.00,CLR,,0.00,WeatherDisplay:10.37,2013-04-20 23:05:00,
2013-04-20 16:10:00,81.8,22.1,29.81,ENE,71,11.5,11.5,11,0.00,CLR,,0.00,WeatherDisplay:10.37,2013-04-20 23:10:00,
2013-04-20 16:15:00,81.4,21.8,29.81,NE,49,5.0,5.0,11,0.00,CLR,,0.00,WeatherDisplay:10.37,2013-04-20 23:15:00,
2013-04-20 16:20:00,82.1,20.1,29.81,NE,34,8.1,8.1,10,0.00,CLR,,0.00,WeatherDisplay:10.37,2013-04-20 23:20:00,
2013-04-20 16:26:00,83.0,20.8,29.81,North,11,5.8,5.8,10,0.00,CLR,,0.00,WeatherDisplay:10.37,2013-04-20 23:26:00,
2013-04-20 16:31:00,83.2,20.9,29.81,SSE,157,8.0,8.0,10,0.00,CLR,,0.00,WeatherDisplay:10.37,2013-04-20 23:31:00,
2013-04-20 16:36:00,82.5,20.4,29.80,East,98,7.0,7.0,10,0.00,CLR,,0.00,WeatherDisplay:10.37,2013-04-20 23:36:00,
2013-04-20 16:41:00,81.9,19.9,29.80,East,100,13.0,13.0,10,0.00,CLR,,0.00,WeatherDisplay:10.37,2013-04-20 23:41:00,
2013-04-20 16:46:00,81.1,19.3,29.80,ENE,65,9.2,9.2,10,0.00,CLR,,0.00,WeatherDisplay:10.37,2013-04-20 23:46:00,
2013-04-20 16:51:00,81.6,19.7,29.80,East,92,8.0,8.0,10,0.00,CLR,,0.00,WeatherDisplay:10.37,2013-04-20 23:51:00,
2013-04-20 16:56:00,81.6,19.7,29.80,ESE,114,9.2,9.2,10,0.00,CLR,,0.00,WeatherDisplay:10.37,2013-04-20 23:56:00,
2013-04-20 17:01:00,81.6,19.7,29.80,South,190,8.1,8.1,10,0.00,CLR,,0.00,WeatherDisplay:10.37,2013-04-21 00:01:00,
2013-04-20 17:07:00,81.7,19.8,29.80,SSE,164,5.8,5.8,10,0.00,CLR,,0.00,WeatherDisplay:10.37,2013-04-21 00:07:00,
2013-04-20 17:12:00,81.8,19.9,29.80,ESE,110,8.1,8.1,10,0.00,CLR,,0.00,WeatherDisplay:10.37,2013-04-21 00:12:00,
2013-04-20 17:17:00,81.8,19.9,29.80,ESE,113,3.5,3.7,10,0.00,CLR,,0.00,WeatherDisplay:10.37,2013-04-21 00:17:00,
2013-04-20 17:22:00,82.1,20.1,29.80,SSE,156,7.0,7.0,10,0.00,CLR,,0.00,WeatherDisplay:10.37,2013-04-21 00:22:00,
2013-04-20 17:27:00,82.1,20.1,29.79,ENE,75,11.5,11.5,10,0.00,CLR,,0.00,WeatherDisplay:10.37,2013-04-21 00:27:00,
2013-04-20 17:32:00,81.7,19.8,29.80,ESE,106,6.9,6.9,10,0.00,CLR,,0.00,WeatherDisplay:10.37,2013-04-21 00:32:00,
2013-04-20 17:38:00,82.3,20.3,29.79,ESE,111,1.1,0.0,10,0.00,CLR,,0.00,WeatherDisplay:10.37,2013-04-21 00:38:00,
2013-04-20 17:43:00,83.7,18.8,29.79,ESE,109,1.0,3.0,9,0.00,CLR,,0.00,WeatherDisplay:10.37,2013-04-21 00:43:00,
2013-04-20 17:48:00,84.2,19.2,29.79,ESE,111,2.0,6.0,9,0.00,CLR,,0.00,WeatherDisplay:10.37,2013-04-21 00:48:00,
2013-04-20 17:53:00,82.9,18.2,29.79,South,170,3.5,3.5,9,0.00,CLR,,0.00,WeatherDisplay:10.37,2013-04-21 00:53:00,
2013-04-20 17:58:00,82.3,17.8,29.79,SSE,165,6.9,6.9,9,0.00,CLR,,0.00,WeatherDisplay:10.37,2013-04-21 00:58:00,
2013-04-20 18:03:00,82.1,17.6,29.79,South,183,3.5,3.5,9,0.00,CLR,,0.00,WeatherDisplay:10.37,2013-04-21 01:03:00,
2013-04-20 18:08:00,82.1,17.6,29.79,NE,55,3.5,3.5,9,0.00,CLR,,0.00,WeatherDisplay:10.37,2013-04-21 01:08:00,
2013-04-20 18:14:00,82.6,18.0,29.79,SE,137,3.5,3.5,9,0.00,CLR,,0.00,WeatherDisplay:10.37,2013-04-21 01:14:00,
2013-04-20 18:19:00,82.1,17.6,29.79,SE,138,6.9,6.9,9,0.00,CLR,,0.00,WeatherDisplay:10.37,2013-04-21 01:19:00,
2013-04-20 18:24:00,81.6,17.3,29.79,SE,144,4.6,4.6,9,0.00,CLR,,0.00,WeatherDisplay:10.37,2013-04-21 01:24:00,
2013-04-20 18:29:00,81.6,17.3,29.79,SE,144,5.0,5.0,9,0.00,CLR,,0.00,WeatherDisplay:10.37,2013-04-21 01:29:00,
2013-04-20 18:34:00,81.6,17.3,29.79,SE,144,3.5,3.5,9,0.00,CLR,,0.00,WeatherDisplay:10.37,2013-04-21 01:34:00,
2013-04-20 18:39:00,81.5,14.5,29.79,SE,144,7.0,7.0,8,0.00,CLR,,0.00,WeatherDisplay:10.37,2013-04-21 01:39:00,
2013-04-20 18:44:00,81.1,14.2,29.79,SE,126,6.9,6.9,8,0.00,CLR,,0.00,WeatherDisplay:10.37,2013-04-21 01:44:00,
2013-04-20 18:49:00,80.9,14.0,29.79,SE,126,3.5,3.5,8,0.00,CLR,,0.00,WeatherDisplay:10.37,2013-04-21 01:49:00,
2013-04-20 18:55:00,80.7,13.9,29.79,ESE,115,4.6,4.6,8,0.00,CLR,,0.00,WeatherDisplay:10.37,2013-04-21 01:55:00,
2013-04-20 19:00:00,80.4,16.4,29.79,SE,143,4.0,4.0,9,0.00,CLR,,0.00,WeatherDisplay:10.37,2013-04-21 02:00:00,
2013-04-20 19:05:00,78.6,31.5,29.80,SSW,194,11.5,11.5,18,0.00,CLR,,0.00,WeatherDisplay:10.37,2013-04-21 02:05:00,
2013-04-20 19:10:00,77.6,34.6,29.80,SSW,195,12.0,12.0,21,0.00,CLR,,0.00,WeatherDisplay:10.37,2013-04-21 02:10:00,
2013-04-20 19:15:00,77.0,36.3,29.80,South,187,15.0,15.0,23,0.00,CLR,,0.00,WeatherDisplay:10.37,2013-04-21 02:15:00,
2013-04-20 19:20:00,76.3,36.8,29.80,South,184,16.1,16.1,24,0.00,CLR,,0.00,WeatherDisplay:10.37,2013-04-21 02:20:00,
2013-04-20 19:26:00,75.7,37.4,29.80,South,189,18.0,18.0,25,0.00,CLR,,0.00,WeatherDisplay:10.37,2013-04-21 02:26:00,
2013-04-20 19:31:00,74.9,38.7,29.80,South,190,17.3,17.3,27,0.00,CLR,,0.00,WeatherDisplay:10.37,2013-04-21 02:31:00,
2013-04-20 19:36:00,73.9,39.6,29.80,South,189,21.9,21.9,29,0.00,CLR,,0.00,WeatherDisplay:10.37,2013-04-21 02:36:00,
2013-04-20 19:41:00,72.8,40.4,29.80,SSW,193,19.0,19.0,31,0.00,CLR,,0.00,WeatherDisplay:10.37,2013-04-21 02:41:00,
2013-04-20 19:46:00,72.1,40.6,29.81,SSW,196,17.3,17.3,32,0.00,CLR,,0.00,WeatherDisplay:10.37,2013-04-21 02:46:00,
2013-04-20 19:51:00,71.7,40.3,29.81,SSW,196,15.0,15.0,32,0.00,CLR,,0.00,WeatherDisplay:10.37,2013-04-21 02:51:00,
2013-04-20 19:57:00,71.2,39.8,29.81,SSW,202,12.0,12.0,32,0.00,CLR,,0.00,WeatherDisplay:10.37,2013-04-21 02:57:00,
2013-04-20 20:02:00,70.8,40.3,29.81,SW,215,12.0,12.0,33,0.00,CLR,,0.00,WeatherDisplay:10.37,2013-04-21 03:02:00,
2013-04-20 20:07:00,70.1,39.6,29.81,SSW,192,9.2,9.2,33,0.00,OVC,,0.00,WeatherDisplay:10.37,2013-04-21 03:07:00,
2013-04-20 20:12:00,69.5,39.9,29.82,South,188,11.5,11.5,34,0.00,OVC,,0.00,WeatherDisplay:10.37,2013-04-21 03:12:00,
2013-04-20 20:17:00,69.0,40.2,29.82,South,186,11.5,11.5,35,0.00,OVC,,0.00,WeatherDisplay:10.37,2013-04-21 03:17:00,
2013-04-20 20:23:00,68.7,39.9,29.82,South,186,11.5,11.5,35,0.00,OVC,,0.00,WeatherDisplay:10.37,2013-04-21 03:23:00,
2013-04-20 20:28:00,68.5,40.5,29.82,SSW,194,15.0,15.0,36,0.00,OVC,,0.00,WeatherDisplay:10.37,2013-04-21 03:28:00,
2013-04-20 20:33:00,68.5,40.5,29.82,South,188,15.0,15.0,36,0.00,OVC,,0.00,WeatherDisplay:10.37,2013-04-21 03:33:00,
2013-04-20 20:38:00,68.1,40.8,29.82,South,191,14.0,14.0,37,0.00,OVC,,0.00,WeatherDisplay:10.37,2013-04-21 03:38:00,
2013-04-20 20:43:00,67.8,40.6,29.82,South,190,17.0,17.0,37,0.00,OVC,,0.00,WeatherDisplay:10.37,2013-04-21 03:43:00,
2013-04-20 20:48:00,67.7,41.2,29.83,SSW,202,13.8,13.8,38,0.00,OVC,,0.00,WeatherDisplay:10.37,2013-04-21 03:48:00,
2013-04-20 20:53:00,67.5,41.0,29.83,SSW,204,16.0,16.0,38,0.00,OVC,,0.00,WeatherDisplay:10.37,2013-04-21 03:53:00,
2013-04-20 20:58:00,67.4,40.9,29.83,SSW,200,18.4,18.4,38,0.00,OVC,,0.00,WeatherDisplay:10.37,2013-04-21 03:58:00,
2013-04-20 21:01:00,67.2,40.7,29.83,SSW,204,17.3,17.3,38,0.00,OVC,,0.00,WeatherDisplay:10.37,2013-04-21 04:01:00,
2013-04-20 21:03:00,67.1,40.6,29.83,SSW,202,13.0,17.0,38,0.00,CLR,,0.00,WeatherDisplay:10.37,2013-04-21 04:03:00,
2013-04-20 21:08:00,66.7,40.9,29.84,SSW,208,16.1,16.1,39,0.00,OVC,,0.00,WeatherDisplay:10.37,2013-04-21 04:08:00,
2013-04-20 21:13:00,66.7,40.9,29.84,SSW,196,15.0,15.0,39,0.00,OVC,,0.00,WeatherDisplay:10.37,2013-04-21 04:13:00,
2013-04-20 21:18:00,66.7,40.9,29.84,SSW,193,15.0,15.0,39,0.00,OVC,,0.00,WeatherDisplay:10.37,2013-04-21 04:18:00,
2013-04-20 21:24:00,66.6,40.9,29.84,SSW,202,16.1,16.1,39,0.00,OVC,,0.00,WeatherDisplay:10.37,2013-04-21 04:24:00,
2013-04-20 21:29:00,66.2,40.5,29.84,SSW,201,15.0,15.0,39,0.00,OVC,,0.00,WeatherDisplay:10.37,2013-04-21 04:29:00,
2013-04-20 21:34:00,65.9,40.2,29.84,SSW,198,11.5,11.5,39,0.00,OVC,,0.00,WeatherDisplay:10.37,2013-04-21 04:34:00,
2013-04-20 21:39:00,65.9,40.2,29.84,SSW,192,11.5,11.5,39,0.00,OVC,,0.00,WeatherDisplay:10.37,2013-04-21 04:39:00,
2013-04-20 21:44:00,65.5,40.5,29.84,SSW,198,12.0,12.0,40,0.00,OVC,,0.00,WeatherDisplay:10.37,2013-04-21 04:44:00,
2013-04-20 21:49:00,65.5,40.5,29.84,SSW,194,11.5,11.5,40,0.00,OVC,,0.00,WeatherDisplay:10.37,2013-04-21 04:49:00,
2013-04-20 21:54:00,65.3,40.3,29.84,South,190,11.0,11.0,40,0.00,OVC,,0.00,WeatherDisplay:10.37,2013-04-21 04:54:00,
2013-04-20 21:59:00,65.3,40.3,29.84,SSW,192,13.0,13.0,40,0.00,OVC,,0.00,WeatherDisplay:10.37,2013-04-21 04:59:00,
2013-04-20 22:05:00,65.2,40.3,29.84,South,190,14.0,14.0,40,0.00,OVC,,0.00,WeatherDisplay:10.37,2013-04-21 05:05:00,
2013-04-20 22:10:00,65.0,39.4,29.84,South,188,13.8,13.8,39,0.00,OVC,,0.00,WeatherDisplay:10.37,2013-04-21 05:10:00,
2013-04-20 22:15:00,64.9,39.3,29.84,SSW,194,11.5,11.5,39,0.00,OVC,,0.00,WeatherDisplay:10.37,2013-04-21 05:15:00,
2013-04-20 22:20:00,64.9,39.3,29.85,SSW,207,12.0,12.0,39,0.00,OVC,,0.00,WeatherDisplay:10.37,2013-04-21 05:20:00,
2013-04-20 22:25:00,64.7,38.5,29.85,SW,225,11.5,11.5,38,0.00,OVC,,0.00,WeatherDisplay:10.37,2013-04-21 05:25:00,
2013-04-20 22:30:00,64.1,38.6,29.85,SW,225,2.3,2.3,39,0.00,OVC,,0.00,WeatherDisplay:10.37,2013-04-21 05:30:00,
2013-04-20 22:35:00,64.0,37.9,29.85,SW,227,6.0,6.0,38,0.00,OVC,,0.00,WeatherDisplay:10.37,2013-04-21 05:35:00,
2013-04-20 22:40:00,63.5,38.1,29.85,WSW,256,7.0,7.0,39,0.00,OVC,,0.00,WeatherDisplay:10.37,2013-04-21 05:40:00,
2013-04-20 22:45:00,62.8,37.5,29.85,WSW,245,5.8,5.8,39,0.00,OVC,,0.00,WeatherDisplay:10.37,2013-04-21 05:45:00,
2013-04-20 22:50:00,63.2,37.8,29.85,WSW,240,6.9,6.9,39,0.00,OVC,,0.00,WeatherDisplay:10.37,2013-04-21 05:50:00,
2013-04-20 22:55:00,63.3,37.9,29.85,WSW,240,4.0,4.0,39,0.00,OVC,,0.00,WeatherDisplay:10.37,2013-04-21 05:55:00,
2013-04-20 23:01:00,63.7,38.3,29.85,WSW,256,3.5,3.5,39,0.00,OVC,,0.00,WeatherDisplay:10.37,2013-04-21 06:01:00,
2013-04-20 23:06:00,64.3,37.5,29.85,West,267,5.8,5.8,37,0.00,OVC,,0.00,WeatherDisplay:10.37,2013-04-21 06:06:00,
2013-04-20 23:11:00,64.2,36.7,29.85,WSW,252,4.6,4.6,36,0.00,OVC,,0.00,WeatherDisplay:10.37,2013-04-21 06:11:00,
2013-04-20 23:16:00,63.9,36.4,29.85,West,277,3.5,3.5,36,0.00,OVC,,0.00,WeatherDisplay:10.37,2013-04-21 06:16:00,
2013-04-20 23:21:00,63.8,36.3,29.85,WNW,294,4.6,4.6,36,0.00,OVC,,0.00,WeatherDisplay:10.37,2013-04-21 06:21:00,
2013-04-20 23:26:00,64.3,36.8,29.85,WSW,257,6.0,6.0,36,0.00,CLR,,0.00,WeatherDisplay:10.37,2013-04-21 06:26:00,
2013-04-20 23:31:00,64.8,36.5,29.85,West,275,7.0,7.0,35,0.00,OVC,,0.00,WeatherDisplay:10.37,2013-04-21 06:31:00,
2013-04-20 23:36:00,64.3,36.0,29.85,WSW,238,9.2,9.2,35,0.00,OVC,,0.00,WeatherDisplay:10.37,2013-04-21 06:36:00,
2013-04-20 23:41:00,63.9,35.7,29.85,WSW,252,10.4,10.4,35,0.00,OVC,,0.00,WeatherDisplay:10.37,2013-04-21 06:41:00,
2013-04-20 23:46:00,64.3,35.3,29.85,WSW,252,13.8,13.8,34,0.00,OVC,,0.00,WeatherDisplay:10.37,2013-04-21 06:46:00,
2013-04-20 23:51:00,64.9,35.8,29.85,WSW,238,15.0,15.0,34,0.00,OVC,,0.00,WeatherDisplay:10.37,2013-04-21 06:51:00,
2013-04-20 23:56:00,65.0,35.9,29.85,SW,232,13.0,13.0,34,0.00,OVC,,0.00,WeatherDisplay:10.37,2013-04-21 06:56:00,